Time,TemperatureF,DewpointF,PressureIn,WindDirection,WindDirectionDegrees,WindSpeedMPH,WindSpeedGustMPH,Humidity,HourlyPrecipIn,Conditions,Clouds,dailyrainin,SoftwareType,DateUTC
2013-09-01 00:04:00,63.1,55.0,29.89,West,266,0.0,1.0,76,0.00,,,0.00,weatherlink.com 1.10,2013-09-01 05:04:00,
2013-09-01 00:19:00,63.1,55.0,29.89,West,280,0.0,1.0,76,0.00,,,0.00,weatherlink.com 1.10,2013-09-01 05:19:00,
2013-09-01 00:34:00,63.1,55.0,29.89,West,281,0.0,3.0,75,0.00,,,0.00,weatherlink.com 1.10,2013-09-01 05:34:00,
2013-09-01 00:49:00,62.7,55.0,29.89,West,260,0.0,2.0,76,0.00,,,0.00,weatherlink.com 1.10,2013-09-01 05:49:00,
2013-09-01 01:04:00,62.3,55.0,29.89,WNW,286,0.0,2.0,77,0.00,,,0.00,weatherlink.com 1.10,2013-09-01 06:04:00,
2013-09-01 01:19:00,62.1,55.0,29.89,WNW,288,1.0,1.0,77,0.00,,,0.00,weatherlink.com 1.10,2013-09-01 06:19:00,
2013-09-01 01:34:00,61.9,55.0,29.89,WNW,295,0.0,1.0,77,0.00,,,0.00,weatherlink.com 1.10,2013-09-01 06:34:00,
2013-09-01 01:49:00,61.8,55.0,29.89,West,262,0.0,1.0,78,0.00,,,0.00,weatherlink.com 1.10,2013-09-01 06:49:00,
2013-09-01 02:04:00,61.1,55.0,29.89,West,264,0.0,2.0,79,0.00,,,0.00,weatherlink.com 1.10,2013-09-01 07:04:00,
2013-09-01 02:19:00,60.5,55.0,29.89,WSW,255,1.0,2.0,81,0.00,,,0.00,weatherlink.com 1.10,2013-09-01 07:19:00,
2013-09-01 02:34:00,59.9,55.0,29.90,WSW,254,0.0,1.0,83,0.00,,,0.00,weatherlink.com 1.10,2013-09-01 07:34:00,
2013-09-01 02:49:00,59.4,55.0,29.91,West,271,0.0,3.0,84,0.00,,,0.00,weatherlink.com 1.10,2013-09-01 07:49:00,
2013-09-01 03:04:00,59.6,56.0,29.91,NW,314,1.0,3.0,86,0.00,,,0.00,weatherlink.com 1.10,2013-09-01 08:04:00,
2013-09-01 03:19:00,60.0,56.0,29.91,WSW,246,0.0,5.0,86,0.00,,,0.00,weatherlink.com 1.10,2013-09-01 08:19:00,
2013-09-01 03:34:00,60.1,56.0,29.92,WSW,248,0.0,7.0,87,0.00,,,0.00,weatherlink.com 1.10,2013-09-01 08:34:00,
2013-09-01 03:49:00,60.3,57.0,29.91,West,280,1.0,7.0,87,0.00,,,0.00,weatherlink.com 1.10,2013-09-01 08:49:00,
2013-09-01 04:04:00,60.5,57.0,29.92,WSW,248,0.0,7.0,87,0.00,,,0.00,weatherlink.com 1.10,2013-09-01 09:04:00,
2013-09-01 04:19:00,60.8,57.0,29.93,NW,308,1.0,4.0,87,0.00,,,0.00,weatherlink.com 1.10,2013-09-01 09:19:00,
2013-09-01 04:34:00,61.1,57.0,29.93,NNE,20,2.0,8.0,87,0.00,,,0.00,weatherlink.com 1.10,2013-09-01 09:34:00,
2013-09-01 04:49:00,61.4,57.0,29.94,SW,225,1.0,6.0,86,0.00,,,0.00,weatherlink.com 1.10,2013-09-01 09:49:00,
2013-09-01 05:04:00,61.4,57.0,29.94,NW,318,5.0,6.0,86,0.00,,,0.00,weatherlink.com 1.10,2013-09-01 10:04:00,
2013-09-01 05:19:00,61.0,57.0,29.94,WNW,290,2.0,7.0,87,0.00,,,0.00,weatherlink.com 1.10,2013-09-01 10:19:00,
2013-09-01 05:34:00,60.7,57.0,29.95,West,266,2.0,8.0,87,0.00,,,0.00,weatherlink.com 1.10,2013-09-01 10:34:00,
2013-09-01 05:49:00,60.8,57.0,29.95,WNW,288,1.0,5.0,87,0.00,,,0.00,weatherlink.com 1.10,2013-09-01 10:49:00,
2013-09-01 06:04:00,60.9,57.0,29.95,WNW,288,2.0,7.0,86,0.00,,,0.00,weatherlink.com 1.10,2013-09-01 11:04:00,
2013-09-01 06:19:00,59.7,56.0,29.96,WNW,297,4.0,11.0,86,0.00,,,0.00,weatherlink.com 1.10,2013-09-01 11:19:00,
2013-09-01 06:35:00,58.7,55.0,29.97,NW,308,1.0,8.0,86,0.00,,,0.00,weatherlink.com 1.10,2013-09-01 11:35:00,
2013-09-01 06:50:00,57.8,54.0,29.97,NW,319,4.0,10.0,86,0.00,,,0.00,weatherlink.com 1.10,2013-09-01 11:50:00,
2013-09-01 07:05:00,57.2,53.0,29.98,WSW,248,0.0,8.0,86,0.00,,,0.00,weatherlink.com 1.10,2013-09-01 12:05:00,
2013-09-01 07:20:00,57.2,53.0,29.98,SSE,153,0.0,10.0,86,0.00,,,0.00,weatherlink.com 1.10,2013-09-01 12:20:00,
2013-09-01 07:35:00,57.4,53.0,29.99,WSW,255,3.0,8.0,86,0.00,,,0.00,weatherlink.com 1.10,2013-09-01 12:35:00,
2013-09-01 07:50:00,57.7,53.0,29.99,West,266,0.0,8.0,85,0.00,,,0.00,weatherlink.com 1.10,2013-09-01 12:50:00,
2013-09-01 08:05:00,57.9,53.0,30.00,NW,322,3.0,8.0,83,0.00,,,0.00,weatherlink.com 1.10,2013-09-01 13:05:00,
2013-09-01 08:20:00,58.0,52.0,30.01,NNE,23,0.0,12.0,81,0.00,,,0.00,weatherlink.com 1.10,2013-09-01 13:20:00,
2013-09-01 08:35:00,57.7,52.0,30.02,West,269,5.0,12.0,81,0.00,,,0.00,weatherlink.com 1.10,2013-09-01 13:35:00,
2013-09-01 08:50:00,57.4,51.0,30.03,NW,314,1.0,11.0,80,0.00,,,0.00,weatherlink.com 1.10,2013-09-01 13:50:00,
2013-09-01 09:05:00,57.4,51.0,30.03,North,8,1.0,11.0,80,0.00,,,0.00,weatherlink.com 1.10,2013-09-01 14:05:00,
2013-09-01 09:20:00,57.6,51.0,30.04,NW,319,2.0,9.0,79,0.00,,,0.00,weatherlink.com 1.10,2013-09-01 14:20:00,
2013-09-01 09:35:00,57.3,51.0,30.05,WNW,301,3.0,8.0,79,0.00,,,0.00,weatherlink.com 1.10,2013-09-01 14:35:00,
2013-09-01 09:50:00,57.6,51.0,30.05,WNW,283,6.0,11.0,79,0.00,,,0.00,weatherlink.com 1.10,2013-09-01 14:50:00,
2013-09-01 10:05:00,57.7,52.0,30.05,ENE,64,2.0,6.0,80,0.00,,,0.00,weatherlink.com 1.10,2013-09-01 15:05:00,
2013-09-01 10:20:00,57.8,52.0,30.06,NNW,339,6.0,8.0,80,0.00,,,0.00,weatherlink.com 1.10,2013-09-01 15:20:00,
2013-09-01 10:35:00,57.7,51.0,30.06,NW,304,5.0,9.0,78,0.00,,,0.00,weatherlink.com 1.10,2013-09-01 15:35:00,
2013-09-01 10:50:00,58.0,51.0,30.07,WNW,301,1.0,12.0,78,0.00,,,0.00,weatherlink.com 1.10,2013-09-01 15:50:00,
2013-09-01 11:05:00,59.2,52.0,30.07,West,275,2.0,5.0,77,0.00,,,0.00,weatherlink.com 1.10,2013-09-01 16:05:00,
2013-09-01 11:20:00,59.0,52.0,30.07,ESE,103,2.0,8.0,77,0.00,,,0.00,weatherlink.com 1.10,2013-09-01 16:20:00,
2013-09-01 11:35:00,59.3,52.0,30.08,NW,314,5.0,14.0,76,0.00,,,0.00,weatherlink.com 1.10,2013-09-01 16:35:00,
2013-09-01 11:50:00,58.5,52.0,30.08,NNW,336,7.0,11.0,78,0.00,,,0.00,weatherlink.com 1.10,2013-09-01 16:50:00,
2013-09-01 12:05:00,59.6,52.0,30.08,WSW,256,0.0,9.0,76,0.00,,,0.00,weatherlink.com 1.10,2013-09-01 17:05:00,
2013-09-01 12:20:00,60.2,52.0,30.09,NW,305,2.0,10.0,74,0.00,,,0.00,weatherlink.com 1.10,2013-09-01 17:20:00,
2013-09-01 12:35:00,60.4,52.0,30.09,ENE,78,1.0,10.0,75,0.00,,,0.00,weatherlink.com 1.10,2013-09-01 17:35:00,
2013-09-01 12:50:00,60.2,52.0,30.09,WSW,250,1.0,10.0,75,0.00,,,0.00,weatherlink.com 1.10,2013-09-01 17:50:00,
2013-09-01 13:05:00,60.4,52.0,30.09,WNW,294,2.0,8.0,75,0.00,,,0.00,weatherlink.com 1.10,2013-09-01 18:05:00,
2013-09-01 13:20:00,60.4,52.0,30.09,WNW,293,2.0,9.0,75,0.00,,,0.00,weatherlink.com 1.10,2013-09-01 18:20:00,
2013-09-01 13:35:00,60.5,52.0,30.10,SW,218,2.0,11.0,73,0.00,,,0.00,weatherlink.com 1.10,2013-09-01 18:35:00,
2013-09-01 13:50:00,60.6,52.0,30.10,East,86,1.0,14.0,72,0.00,,,0.00,weatherlink.com 1.10,2013-09-01 18:50:00,
2013-09-01 14:05:00,61.6,52.0,30.10,North,4,3.0,7.0,70,0.00,,,0.00,weatherlink.com 1.10,2013-09-01 19:05:00,
2013-09-01 14:20:00,61.6,51.0,30.10,NW,318,3.0,9.0,69,0.00,,,0.00,weatherlink.com 1.10,2013-09-01 19:20:00,
2013-09-01 14:35:00,62.5,52.0,30.10,WNW,302,1.0,6.0,68,0.00,,,0.00,weatherlink.com 1.10,2013-09-01 19:35:00,
2013-09-01 14:50:00,63.3,52.0,30.10,WNW,295,3.0,6.0,66,0.00,,,0.00,weatherlink.com 1.10,2013-09-01 19:50:00,
2013-09-01 15:05:00,63.8,52.0,30.10,NNE,16,3.0,6.0,65,0.00,,,0.00,weatherlink.com 1.10,2013-09-01 20:05:00,
2013-09-01 15:20:00,65.0,52.0,30.10,East,95,2.0,6.0,63,0.00,,,0.00,weatherlink.com 1.10,2013-09-01 20:20:00,
2013-09-01 15:36:00,65.2,52.0,30.09,WNW,297,1.0,7.0,62,0.00,,,0.00,weatherlink.com 1.10,2013-09-01 20:36:00,
2013-09-01 15:51:00,66.0,53.0,30.09,NNE,23,1.0,5.0,63,0.00,,,0.00,weatherlink.com 1.10,2013-09-01 20:51:00,
2013-09-01 16:06:00,66.2,52.0,30.09,West,273,0.0,5.0,60,0.00,,,0.00,weatherlink.com 1.10,2013-09-01 21:06:00,
2013-09-01 16:21:00,66.3,52.0,30.09,WNW,297,3.0,8.0,60,0.00,,,0.00,weatherlink.com 1.10,2013-09-01 21:21:00,
2013-09-01 16:36:00,67.2,53.0,30.08,SW,225,1.0,7.0,60,0.00,,,0.00,weatherlink.com 1.10,2013-09-01 21:36:00,
2013-09-01 16:51:00,67.5,52.0,30.08,ENE,74,1.0,6.0,57,0.00,,,0.00,weatherlink.com 1.10,2013-09-01 21:51:00,
2013-09-01 17:06:00,67.8,52.0,30.08,NW,311,2.0,7.0,57,0.00,,,0.00,weatherlink.com 1.10,2013-09-01 22:06:00,
2013-09-01 17:21:00,67.9,51.0,30.08,SSW,212,1.0,6.0,55,0.00,,,0.00,weatherlink.com 1.10,2013-09-01 22:21:00,
2013-09-01 17:36:00,68.1,51.0,30.08,NNE,33,1.0,6.0,54,0.00,,,0.00,weatherlink.com 1.10,2013-09-01 22:36:00,
2013-09-01 17:51:00,68.1,51.0,30.08,NNE,26,3.0,7.0,55,0.00,,,0.00,weatherlink.com 1.10,2013-09-01 22:51:00,
2013-09-01 18:06:00,68.3,50.0,30.08,North,358,1.0,8.0,53,0.00,,,0.00,weatherlink.com 1.10,2013-09-01 23:06:00,
2013-09-01 18:21:00,67.9,51.0,30.08,ENE,68,3.0,6.0,55,0.00,,,0.00,weatherlink.com 1.10,2013-09-01 23:21:00,
2013-09-01 18:36:00,67.8,51.0,30.08,East,98,2.0,5.0,55,0.00,,,0.00,weatherlink.com 1.10,2013-09-01 23:36:00,
2013-09-01 18:51:00,67.3,50.0,30.09,ESE,121,0.0,5.0,55,0.00,,,0.00,weatherlink.com 1.10,2013-09-01 23:51:00,
2013-09-01 19:06:00,66.8,50.0,30.08,East,79,3.0,5.0,56,0.00,,,0.00,weatherlink.com 1.10,2013-09-02 00:06:00,
2013-09-01 19:21:00,65.9,50.0,30.09,ENE,63,2.0,4.0,57,0.00,,,0.00,weatherlink.com 1.10,2013-09-02 00:21:00,
2013-09-01 19:36:00,65.1,51.0,30.09,ESE,115,0.0,2.0,60,0.00,,,0.00,weatherlink.com 1.10,2013-09-02 00:36:00,
2013-09-01 19:51:00,63.4,50.0,30.09,ENE,60,0.0,2.0,63,0.00,,,0.00,weatherlink.com 1.10,2013-09-02 00:51:00,
2013-09-01 20:06:00,62.1,50.0,30.09,ENE,60,1.0,3.0,64,0.00,,,0.00,weatherlink.com 1.10,2013-09-02 01:06:00,
2013-09-01 20:21:00,60.8,50.0,30.10,ENE,63,0.0,2.0,67,0.00,,,0.00,weatherlink.com 1.10,2013-09-02 01:21:00,
2013-09-01 20:36:00,59.6,49.0,30.10,West,276,0.0,1.0,69,0.00,,,0.00,weatherlink.com 1.10,2013-09-02 01:36:00,
2013-09-01 20:51:00,58.4,49.0,30.11,West,275,0.0,0.0,71,0.00,,,0.00,weatherlink.com 1.10,2013-09-02 01:51:00,
2013-09-01 21:06:00,58.0,49.0,30.11,NE,49,0.0,1.0,72,0.00,,,0.00,weatherlink.com 1.10,2013-09-02 02:06:00,
2013-09-01 21:21:00,58.1,49.0,30.11,NE,47,0.0,2.0,71,0.00,,,0.00,weatherlink.com 1.10,2013-09-02 02:21:00,
2013-09-01 21:36:00,57.5,49.0,30.11,ENE,75,0.0,0.0,72,0.00,,,0.00,weatherlink.com 1.10,2013-09-02 02:36:00,
2013-09-01 21:51:00,56.1,48.0,30.11,ENE,75,0.0,0.0,74,0.00,,,0.00,weatherlink.com 1.10,2013-09-02 02:51:00,
2013-09-01 22:06:00,55.7,48.0,30.12,ENE,74,0.0,1.0,75,0.00,,,0.00,weatherlink.com 1.10,2013-09-02 03:06:00,
2013-09-01 22:21:00,55.4,48.0,30.12,ENE,74,0.0,0.0,76,0.00,,,0.00,weatherlink.com 1.10,2013-09-02 03:21:00,
2013-09-01 22:36:00,55.9,48.0,30.12,ENE,73,1.0,3.0,76,0.00,,,0.00,weatherlink.com 1.10,2013-09-02 03:36:00,
2013-09-01 22:51:00,55.6,48.0,30.13,ENE,72,1.0,4.0,75,0.00,,,0.00,weatherlink.com 1.10,2013-09-02 03:51:00,
2013-09-01 23:06:00,54.8,48.0,30.14,ENE,65,0.0,2.0,77,0.00,,,0.00,weatherlink.com 1.10,2013-09-02 04:06:00,
2013-09-01 23:21:00,53.8,47.0,30.14,ENE,75,0.0,1.0,79,0.00,,,0.00,weatherlink.com 1.10,2013-09-02 04:21:00,
2013-09-01 23:36:00,53.0,47.0,30.14,ESE,103,0.0,1.0,81,0.00,,,0.00,weatherlink.com 1.10,2013-09-02 04:36:00,
2013-09-01 23:51:00,52.3,47.0,30.14,ESE,103,0.0,0.0,82,0.00,,,0.00,weatherlink.com 1.10,2013-09-02 04:51:00,